User: anonymous   Login
Location: Unspecified
(0.0000°N, 0.0000°E)
Time: 09:19:44
(UTC+00:00)
Language:

UWE-1 - Orbit

View from above orbital plane
View from above orbital plane
View from above satellite
View from above satellite

Ground track
Ground track

The orbit data is extracted from the following two-line orbital elements,

1 28892U 05043C   21016.84659968  .00000105  00000-0  29162-4 0  9996
2 28892  98.0429 153.0857 0015517 332.9559  27.0833 14.63779873811904
Epoch (UTC): 16 January 2021 20:19:06
Eccentricity: 0.0015517
inclination: 98.0429°
perigee height: 670 km
apogee height: 692 km
right ascension of ascending node: 153.0857°
argument of perigee: 332.9559°
revolutions per day: 14.63779873
mean anomaly at epoch: 27.0833°
orbit number at epoch: 81190

The dashed part of the orbit path shows where the satellite is in the earth's shadow,  

DLR